Location: ??????
(42.0089°N, 44.3281°E)
Time: 19:22:23
(UTC+00:00)

Meteor 1-16 Rocket - Pass Details

Date: 24 October 2021
Orbit: 789 x 908 km, 81.2° (Epoch: 02 December)

Event Time Altitude Azimuth Distance (km) Brightness Sun altitude
Rises 14:33:17 0° 187° (S) 3,514 7.7 -5.5°
Reaches altitude 10° 14:35:45 10° 187° (S) 2,570 7.0 -5.9°
Maximum altitude 14:41:38 89° 104° (ESE) 895 4.4 -7.0°
Drops below altitude 10° 14:47:26 10° 10° (N) 2,527 6.5 -8.1°
Sets 14:49:50 0° 11° (N) 3,451 7.2 -8.5°
